Park Rapids, MN

10:20 PM CST on January 22, 2018 (GMT -0600)
Park Rapids Municipal

Weather History for KPKD - May, 2013

Change the Weather History Date:

Friday, May 17, 2013

  Actual Average Record
Temperature  
Mean Temperature 62 °F -  
Max Temperature 72 °F 71 °F 90 °F (1987)
Min Temperature 53 °F 43 °F 25 °F (1973)
Degree Days  
Heating Degree Days 4    
Growing Degree Days 12 (Base 50)    
Moisture  
Dew Point 40 °F    
Average Humidity 46    
Maximum Humidity 63    
Minimum Humidity 30    
Precipitation  
Precipitation 0.00 in - - ()
Sea Level Pressure  
Sea Level Pressure 29.95 in    
Wind  
Wind Speed 11 mph (ESE)    
Max Wind Speed 20 mph    
Max Gust Speed 25 mph    
Visibility 10 miles    
Events      
Averages and records for this station are not official NWS values.
T = Trace of Precipitation, MM = Missing Value Source: NWS Daily Summary

Daily Weather History Graph

Daily Weather History Graph

Search for Another Location

Airport or City:

Trip Planner

Search our weather history database for the weather conditions in past years. The results will help you decide how hot, cold, wet, or windy it might be!

Date:

Astronomy

May. 17, 2013 Rise Set
Actual Time 5:42 AM CDT 8:51 PM CDT
Civil Twilight 5:06 AM CDT 9:27 PM CDT
Nautical Twilight 4:19 AM CDT 10:15 PM CDT
Astronomical Twilight 3:21 AM CDT 11:13 PM CDT
Moon 12:27 PM CDT (5/17) 1:34 AM CDT (5/17)
Length of Visible Light 16h 21m
Length of Day
15h 09m
Waxing Crescent, 45% of the Moon is Illuminated
May 17
Waxing Crescent
May 17
First Quarter
May 24
Full
May 31
Last Quarter
Jun 8
New

Hourly Weather History & Observations

Time (CDT) Temp. Dew Point Humidity Pressure Visibility Wind Dir Wind Speed Gust Speed Precip Events Conditions
12:53 AM 64.0 °F 32.0 °F 30% 29.92 in 10.0 mi East 8.1 mph - N/A   Overcast
1:53 AM 62.1 °F 32.0 °F 32% 29.94 in 10.0 mi East 9.2 mph - N/A   Overcast
2:53 AM 60.1 °F 32.0 °F 35% 29.96 in 10.0 mi East 9.2 mph - N/A   Overcast
3:53 AM 57.9 °F 28.9 °F 33% 29.96 in 10.0 mi East 9.2 mph - N/A   Overcast
4:53 AM 57.0 °F 28.0 °F 33% 29.95 in 10.0 mi ENE 9.2 mph - N/A   Mostly Cloudy
5:53 AM 54.0 °F 28.9 °F 38% 29.96 in 10.0 mi East 6.9 mph - N/A   Partly Cloudy
6:53 AM 53.6 °F 30.2 °F 41% 29.98 in 10.0 mi East 5.8 mph - N/A   Clear
7:53 AM 54.0 °F 32.0 °F 43% 30.00 in 10.0 mi East 12.7 mph - N/A   Scattered Clouds
8:53 AM 55.9 °F 34.0 °F 44% 30.00 in 10.0 mi ESE 10.4 mph 19.6 mph N/A   Clear
9:53 AM 60.1 °F 37.0 °F 42% 29.98 in 10.0 mi ESE 15.0 mph - N/A   Partly Cloudy
10:53 AM 62.1 °F 41.0 °F 46% 29.98 in 10.0 mi SE 11.5 mph 19.6 mph N/A   Partly Cloudy
11:53 AM 63.0 °F 42.1 °F 46% 29.98 in 10.0 mi East 12.7 mph - N/A   Clear
12:53 PM 64.9 °F 43.0 °F 45% 29.96 in 10.0 mi ESE 15.0 mph 20.7 mph N/A   Clear
1:53 PM 68.0 °F 42.8 °F 40% 29.94 in 10.0 mi East 17.3 mph 21.9 mph N/A   Clear
2:53 PM 70.0 °F 45.0 °F 41% 29.93 in 10.0 mi ESE 15.0 mph 25.3 mph N/A   Clear
3:53 PM 70.0 °F 45.0 °F 41% 29.94 in 10.0 mi SE 19.6 mph - N/A   Overcast
4:53 PM 68.0 °F 46.9 °F 47% 29.93 in 10.0 mi ESE 12.7 mph 23.0 mph N/A   Overcast
5:53 PM 66.0 °F 46.9 °F 50% 29.94 in 10.0 mi ESE 11.5 mph - N/A   Overcast
6:53 PM 64.9 °F 48.0 °F 54% 29.95 in 10.0 mi SE 11.5 mph - N/A   Overcast
7:53 PM 63.0 °F 50.0 °F 63% 29.94 in 10.0 mi SE 10.4 mph - 0.00 in   Overcast
8:53 PM 63.0 °F 50.0 °F 63% 29.94 in 10.0 mi SE 15.0 mph 20.7 mph N/A   Overcast
9:53 PM 61.0 °F 48.0 °F 62% 29.94 in 10.0 mi ESE 11.5 mph - N/A   Overcast
10:27 PM 60.8 °F 46.4 °F 59% 29.94 in 10.0 mi SE 16.1 mph 25.3 mph N/A   Overcast
10:53 PM 60.1 °F 43.0 °F 53% 29.95 in 10.0 mi ESE 6.9 mph - N/A   Overcast
11:53 PM 57.9 °F 44.1 °F 60% 29.95 in 10.0 mi ESE 11.5 mph - N/A   Overcast